User: anonymous   Login
Location: Carnières
(50.1682°N, 3.3474°E)
Time: 20:35:19
(UTC+00:00)
Language:

Meteor 1-12 Rocket - Orbit

View from above orbital plane
View from above orbital plane
View from above satellite
View from above satellite

Ground track
Ground track

The orbit data is extracted from the following two-line orbital elements,

1 06080U 72049B   24204.96565292  .00000220  00000-0  13747-3 0  9991
2 06080  81.2393  19.2236 0048609 200.2627 159.6611 14.01124368659976
Epoch (UTC): 22 July 2024 23:10:32
Eccentricity: 0.0048609
inclination: 81.2393°
perigee height: 854 km
apogee height: 925 km
right ascension of ascending node: 19.2236°
argument of perigee: 200.2627°
revolutions per day: 14.01124368
mean anomaly at epoch: 159.6611°
orbit number at epoch: 65997

The dashed part of the orbit path shows where the satellite is in the earth's shadow,  

DLR